Weather History for KSEG - August, 2014

Change the Weather History Date:

Friday, August 8, 2014

  Actual Average (KIPT) Record (KIPT)
Temperature  
Mean Temperature 65 °F 72 °F  
Max Temperature 79 °F 83 °F 102 °F (1918)
Min Temperature 51 °F 62 °F 46 °F (1948)
Degree Days  
Heating Degree Days 0 0  
Month to date heating degree days 0  
Since 1 June heating degree days 41  
Since 1 July heating degree days 4  
Cooling Degree Days 0 7  
Month to date cooling degree days 61  
Year to date cooling degree days 494  
Since 1 June cooling degree days 451  
Growing Degree Days 15 (Base 50)    
Moisture  
Dew Point 55 °F    
Average Humidity 80    
Maximum Humidity 97    
Minimum Humidity 45    
Precipitation  
Precipitation 0.00 in 0.13 in 1.91 in (2005)
Month to date precipitation 1.07  
Year to date precipitation 24.24  
Sea Level Pressure  
Sea Level Pressure 30.13 in    
Wind  
Wind Speed 1 mph (NNW)    
Max Wind Speed 6 mph    
Max Gust Speed -    
Visibility 5 miles    
Events Fog    
T = Trace of Precipitation, MM = Missing Value Source: NWS Daily Summary

Daily Weather History Graph

Daily Weather History Graph

Search for Another Location

Airport or City:

Trip Planner

Search our weather history database for the weather conditions in past years. The results will help you decide how hot, cold, wet, or windy it might be!

Date:

Astronomy

Aug. 08, 2014 Rise Set
Actual Time 6:10 AM EDT 8:14 PM EDT
Civil Twilight 5:40 AM EDT 8:44 PM EDT
Nautical Twilight 5:03 AM EDT 9:21 PM EDT
Astronomical Twilight 4:23 AM EDT 10:01 PM EDT
Moon 6:24 PM EDT (8/8) 3:40 AM EDT (8/8)
Length of Visible Light 15h 04m
Length of Day
14h 04m
Waxing Gibbous, 93% of the Moon is Illuminated
Aug 8
Waxing Gibbous
Aug 10
Full
Aug 17
Last Quarter
Aug 25
New
Sep 2
First Quarter

Hourly Weather History & Observations

Time (EDT) Temp. Dew Point Humidity Pressure Visibility Wind Dir Wind Speed Gust Speed Precip Events Conditions
12:53 AM 55.9 °F 54.0 °F 93% 30.09 in 5.0 mi Calm Calm - N/A   Clear
1:53 AM 55.9 °F 54.0 °F 93% 30.09 in 5.0 mi Calm Calm - N/A   Clear
2:53 AM 54.0 °F 52.0 °F 93% 30.10 in 4.0 mi NNW 3.5 mph - N/A   Clear
3:53 AM 53.1 °F 51.1 °F 93% 30.11 in 4.0 mi Calm Calm - N/A   Clear
4:53 AM 52.0 °F 50.0 °F 93% 30.12 in 3.0 mi Calm Calm - N/A   Clear
5:53 AM 51.1 °F 48.9 °F 92% 30.14 in 3.0 mi Calm Calm - N/A   Clear
6:25 AM 51.1 °F 48.9 °F 92% 30.15 in 2.0 mi North 3.5 mph - N/A   Clear
6:53 AM 52.0 °F 50.0 °F 93% 30.15 in 2.5 mi Calm Calm - N/A   Clear
7:12 AM 53.1 °F 51.1 °F 93% 30.16 in 1.2 mi Calm Calm - N/A   Scattered Clouds
7:19 AM 54.0 °F 52.0 °F 93% 30.16 in 0.2 mi Calm Calm - N/A Fog Fog
7:53 AM 55.9 °F 55.0 °F 97% 30.17 in 0.2 mi Calm Calm - N/A Fog Fog
8:09 AM 57.9 °F 55.9 °F 93% 30.17 in 1.2 mi Calm Calm - N/A   Mostly Cloudy
8:18 AM 57.9 °F 57.0 °F 97% 30.18 in 2.5 mi Calm Calm - N/A   Mostly Cloudy
8:23 AM 57.9 °F 57.0 °F 97% 30.18 in 3.0 mi Calm Calm - N/A   Scattered Clouds
8:53 AM 61.0 °F 57.0 °F 87% 30.17 in 5.0 mi Calm Calm - N/A   Clear
9:53 AM 66.9 °F 57.9 °F 73% 30.17 in 6.0 mi Calm Calm - N/A   Haze
10:53 AM 72.0 °F 57.9 °F 61% 30.16 in 6.0 mi NNW 4.6 mph - N/A   Haze
11:53 AM 75.0 °F 57.9 °F 55% 30.15 in 7.0 mi NNW 5.8 mph - N/A   Clear
12:53 PM 78.1 °F 57.0 °F 48% 30.13 in 7.0 mi Calm Calm - N/A   Clear
1:53 PM 77.0 °F 57.0 °F 50% 30.12 in 7.0 mi North 3.5 mph - N/A   Clear
2:53 PM 79.0 °F 55.9 °F 45% 30.10 in 7.0 mi Variable 3.5 mph - N/A   Scattered Clouds
3:53 PM 78.1 °F 55.9 °F 46% 30.09 in 7.0 mi Variable 3.5 mph - N/A   Clear
4:53 PM 78.1 °F 55.9 °F 46% 30.09 in 7.0 mi Variable 3.5 mph - N/A   Clear
5:53 PM 78.1 °F 57.0 °F 48% 30.09 in 7.0 mi Variable 3.5 mph - N/A   Clear
6:53 PM 75.0 °F 60.1 °F 60% 30.09 in 7.0 mi Calm Calm - N/A   Clear
7:53 PM 66.9 °F 63.0 °F 87% 30.09 in 6.0 mi Calm Calm - N/A   Clear
8:53 PM 63.0 °F 61.0 °F 93% 30.09 in 7.0 mi Calm Calm - N/A   Clear
9:53 PM 60.1 °F 57.9 °F 93% 30.11 in 6.0 mi Calm Calm - N/A   Clear
10:53 PM 60.1 °F 57.0 °F 90% 30.12 in 5.0 mi Calm Calm - N/A   Clear
11:53 PM 57.9 °F 55.9 °F 93% 30.13 in 5.0 mi Calm Calm - N/A   Clear